| time (UTC) | temp F | wind direction | speed MPH | gust MPH | rain 1hr in | rain 24hr in | rain mn in | humidity % | barometer mb |
| 20260509201108 | 71 | 89 | 2.0 | 2.0 | 0.00 | 0.00 | 0.00 | 52 | 1006.0 |
| 20260509200603 | 72 | 166 | 4.0 | 5.0 | 0.00 | 0.00 | 0.00 | 51 | 1006.6 |
| 20260509200059 | 71 | 57 | 0.0 | 0.0 | 0.00 | 0.00 | 0.00 | 51 | 1006.6 |
| 20260509195555 | 71 | 122 | 4.0 | 5.0 | 0.00 | 0.00 | 0.00 | 52 | 1006.3 |
| 20260509195050 | 71 | 117 | 5.0 | 6.0 | 0.00 | 0.00 | 0.00 | 53 | 1006.6 |
| 20260509194549 | 71 | 66 | 0.0 | 0.0 | 0.00 | 0.00 | 0.00 | 53 | 1006.5 |
| 20260509194048 | 70 | 64 | 0.0 | 1.0 | 0.00 | 0.00 | 0.00 | 53 | 1006.7 |
| 20260509193542 | 72 | 101 | 5.0 | 6.0 | 0.00 | 0.00 | 0.00 | 51 | 1006.6 |
| 20260509193039 | 74 | 18 | 1.0 | 2.0 | 0.00 | 0.00 | 0.00 | 50 | 1006.7 |
| 20260509192536 | 74 | 36 | 1.0 | 1.0 | 0.00 | 0.00 | 0.00 | 50 | 1007.0 |
| 20260509192031 | 72 | 174 | 3.0 | 5.0 | 0.00 | 0.00 | 0.00 | 51 | 1006.8 |
| 20260509191525 | 72 | 194 | 2.0 | 3.0 | 0.00 | 0.00 | 0.00 | 53 | 1006.7 |
| 20260509191021 | 71 | 139 | 4.0 | 6.0 | 0.00 | 0.00 | 0.00 | 54 | 1006.8 |
| 20260509190519 | 71 | 147 | 2.0 | 3.0 | 0.00 | 0.00 | 0.00 | 54 | 1006.8 |
| 20260509190017 | 72 | 143 | 5.0 | 6.0 | 0.00 | 0.00 | 0.00 | 51 | 1006.8 |
| 20260509185514 | 71 | 131 | 4.0 | 5.0 | 0.00 | 0.00 | 0.00 | 53 | 1006.7 |
| 20260509185010 | 71 | 116 | 5.0 | 5.0 | 0.00 | 0.00 | 0.00 | 52 | 1006.9 |
| 20260509184509 | 72 | 169 | 5.0 | 7.0 | 0.00 | 0.00 | 0.00 | 51 | 1007.1 |
| 20260509184004 | 71 | 87 | 2.0 | 2.0 | 0.00 | 0.00 | 0.00 | 54 | 1007.0 |
| 20260509183459 | 71 | 165 | 3.0 | 5.0 | 0.00 | 0.00 | 0.00 | 52 | 1007.2 |
| 20260509182955 | 69 | 338 | 3.0 | 3.0 | 0.00 | 0.00 | 0.00 | 54 | 1007.4 |
| 20260509182452 | 70 | 121 | 3.0 | 3.0 | 0.00 | 0.00 | 0.00 | 52 | 1007.7 |
| 20260509181949 | 71 | 131 | 6.0 | 7.0 | 0.00 | 0.00 | 0.00 | 52 | 1007.7 |
| 20260509181447 | 71 | 21 | 3.0 | 5.0 | 0.00 | 0.00 | 0.00 | 51 | 1007.5 |
| 20260509180945 | 70 | 85 | 2.0 | 2.0 | 0.00 | 0.00 | 0.00 | 54 | 1007.9 |
| 20260509180440 | 70 | 108 | 1.0 | 2.0 | 0.00 | 0.00 | 0.00 | 54 | 1008.0 |
| 20260509175937 | 69 | 145 | 4.0 | 6.0 | 0.00 | 0.00 | 0.00 | 54 | 1007.6 |
| 20260509175433 | 69 | 99 | 2.0 | 3.0 | 0.00 | 0.00 | 0.00 | 54 | 1007.9 |
| 20260509174929 | 68 | 59 | 1.0 | 2.0 | 0.00 | 0.00 | 0.00 | 54 | 1007.9 |
| 20260509174426 | 68 | 82 | 3.0 | 5.0 | 0.00 | 0.00 | 0.00 | 57 | 1008.2 |
| 20260509173922 | 67 | 152 | 5.0 | 6.0 | 0.00 | 0.00 | 0.00 | 55 | 1008.1 |
| 20260509173421 | 69 | 49 | 1.0 | 1.0 | 0.00 | 0.00 | 0.00 | 55 | 1008.1 |
| 20260509172918 | 68 | 48 | 2.0 | 2.0 | 0.00 | 0.00 | 0.00 | 56 | 1008.3 |
| 20260509172415 | 68 | 82 | 2.0 | 2.0 | 0.00 | 0.00 | 0.00 | 55 | 1008.4 |
| 20260509171910 | 67 | 30 | 3.0 | 3.0 | 0.00 | 0.00 | 0.00 | 55 | 1008.6 |
| 20260509171407 | 67 | 83 | 2.0 | 2.0 | 0.00 | 0.00 | 0.00 | 56 | 1008.6 |
| 20260509170903 | 67 | 57 | 2.0 | 3.0 | 0.00 | 0.00 | 0.00 | 56 | 1008.6 |
| 20260509170359 | 67 | 47 | 3.0 | 3.0 | 0.00 | 0.00 | 0.00 | 55 | 1008.5 |
| 20260509165854 | 67 | 48 | 1.0 | 1.0 | 0.00 | 0.00 | 0.00 | 55 | 1008.7 |
| 20260509165349 | 68 | 6 | 1.0 | 2.0 | 0.00 | 0.00 | 0.00 | 53 | 1008.8 |
| 20260509164845 | 68 | 27 | 1.0 | 2.0 | 0.00 | 0.00 | 0.00 | 52 | 1009.0 |
| 20260509164341 | 68 | 48 | 3.0 | 5.0 | 0.00 | 0.00 | 0.00 | 54 | 1009.0 |
| 20260509163837 | 69 | 87 | 3.0 | 6.0 | 0.00 | 0.00 | 0.00 | 52 | 1008.7 |
| 20260509163334 | 69 | 50 | 0.0 | 1.0 | 0.00 | 0.00 | 0.00 | 51 | 1008.9 |
| 20260509162833 | 69 | 28 | 2.0 | 3.0 | 0.00 | 0.00 | 0.00 | 50 | 1008.9 |
| 20260509162326 | 69 | 34 | 2.0 | 2.0 | 0.00 | 0.00 | 0.00 | 49 | 1008.9 |
| 20260509161823 | 68 | 101 | 1.0 | 1.0 | 0.00 | 0.00 | 0.00 | 51 | 1008.8 |
| 20260509161319 | 68 | 32 | 4.0 | 5.0 | 0.00 | 0.00 | 0.00 | 51 | 1008.7 |
| 20260509160815 | 68 | 40 | 2.0 | 3.0 | 0.00 | 0.00 | 0.00 | 52 | 1008.7 |
| 20260509160311 | 69 | 135 | 5.0 | 6.0 | 0.00 | 0.00 | 0.00 | 50 | 1008.4 |
| 20260509155806 | 69 | 146 | 5.0 | 6.0 | 0.00 | 0.00 | 0.00 | 52 | 1008.4 |
| 20260509155306 | 68 | 97 | 2.0 | 2.0 | 0.00 | 0.00 | 0.00 | 51 | 1008.3 |
| 20260509154759 | 69 | 24 | 4.0 | 6.0 | 0.00 | 0.00 | 0.00 | 51 | 1008.6 |
| 20260509154256 | 69 | 70 | 0.0 | 1.0 | 0.00 | 0.00 | 0.00 | 54 | 1008.4 |
| 20260509153753 | 68 | 38 | 3.0 | 3.0 | 0.00 | 0.00 | 0.00 | 52 | 1008.7 |
| 20260509153249 | 68 | 42 | 2.0 | 3.0 | 0.00 | 0.00 | 0.00 | 51 | 1008.6 |
| 20260509152746 | 67 | 57 | 2.0 | 2.0 | 0.00 | 0.00 | 0.00 | 53 | 1008.9 |
| 20260509152242 | 67 | 15 | 2.0 | 2.0 | 0.00 | 0.00 | 0.00 | 53 | 1008.6 |
| 20260509151739 | 67 | 72 | 1.0 | 1.0 | 0.00 | 0.00 | 0.00 | 53 | 1008.9 |
| 20260509151235 | 67 | 59 | 0.0 | 1.0 | 0.00 | 0.00 | 0.00 | 54 | 1009.2 |
| 20260509150734 | 67 | 68 | 2.0 | 2.0 | 0.00 | 0.00 | 0.00 | 51 | 1009.0 |
| 20260509150232 | 68 | 116 | 4.0 | 6.0 | 0.00 | 0.00 | 0.00 | 52 | 1008.9 |
| 20260509145729 | 67 | 133 | 3.0 | 5.0 | 0.00 | 0.00 | 0.00 | 53 | 1008.9 |
| 20260509145228 | 67 | 100 | 5.0 | 6.0 | 0.00 | 0.00 | 0.00 | 53 | 1008.8 |
| 20260509144725 | 68 | 107 | 3.0 | 5.0 | 0.00 | 0.00 | 0.00 | 54 | 1008.8 |
| 20260509144222 | 69 | 77 | 1.0 | 2.0 | 0.00 | 0.00 | 0.00 | 50 | 1008.8 |
| 20260509143720 | 69 | 120 | 2.0 | 2.0 | 0.00 | 0.00 | 0.00 | 48 | 1009.2 |
| 20260509143217 | 68 | 308 | 2.0 | 3.0 | 0.00 | 0.00 | 0.00 | 51 | 1008.9 |
| 20260509142712 | 69 | 61 | 3.0 | 5.0 | 0.00 | 0.00 | 0.00 | 46 | 1009.0 |
| 20260509142209 | 68 | 68 | 1.0 | 2.0 | 0.00 | 0.00 | 0.00 | 48 | 1009.2 |
| 20260509141705 | 68 | 53 | 0.0 | 1.0 | 0.00 | 0.00 | 0.00 | 48 | 1009.3 |
| 20260509141202 | 67 | 14 | 1.0 | 2.0 | 0.00 | 0.00 | 0.00 | 50 | 1009.7 |
| 20260509140658 | 66 | 56 | 1.0 | 1.0 | 0.00 | 0.00 | 0.00 | 50 | 1009.7 |
| 20260509140156 | 66 | 55 | 0.0 | 1.0 | 0.00 | 0.00 | 0.00 | 49 | 1009.4 |
| 20260509135653 | 65 | 52 | 0.0 | 1.0 | 0.00 | 0.00 | 0.00 | 51 | 1009.3 |
| 20260509135151 | 64 | 102 | 1.0 | 2.0 | 0.00 | 0.00 | 0.00 | 52 | 1009.5 |
| 20260509134647 | 64 | 69 | 0.0 | 1.0 | 0.00 | 0.00 | 0.00 | 51 | 1009.5 |
| 20260509134145 | 64 | 43 | 1.0 | 2.0 | 0.00 | 0.00 | 0.00 | 52 | 1009.4 |
| 20260509133642 | 63 | 49 | 0.0 | 1.0 | 0.00 | 0.00 | 0.00 | 54 | 1009.3 |
| 20260509133139 | 63 | 23 | 2.0 | 2.0 | 0.00 | 0.00 | 0.00 | 57 | 1009.3 |
| 20260509132637 | 62 | 46 | 1.0 | 1.0 | 0.00 | 0.00 | 0.00 | 57 | 1009.1 |
| 20260509132136 | 62 | 45 | 0.0 | 0.0 | 0.00 | 0.00 | 0.00 | 60 | 1009.3 |
| 20260509131631 | 61 | 57 | 0.0 | 0.0 | 0.00 | 0.00 | 0.00 | 62 | 1009.5 |
| 20260509131129 | 61 | 57 | 0.0 | 0.0 | 0.00 | 0.00 | 0.00 | 61 | 1009.2 |
| 20260509130624 | 60 | 56 | 0.0 | 1.0 | 0.00 | 0.00 | 0.00 | 62 | 1009.5 |
| 20260509130121 | 60 | 57 | 0.0 | 0.0 | 0.00 | 0.00 | 0.00 | 61 | 1009.6 |
| 20260509125617 | 60 | 66 | 0.0 | 0.0 | 0.00 | 0.00 | 0.00 | 59 | 1009.5 |
| 20260509125114 | 60 | 67 | 0.0 | 0.0 | 0.00 | 0.00 | 0.00 | 59 | 1009.6 |
| 20260509124611 | 60 | 64 | 0.0 | 0.0 | 0.00 | 0.00 | 0.00 | 58 | 1009.4 |
| 20260509124108 | 60 | 54 | 0.0 | 0.0 | 0.00 | 0.00 | 0.00 | 59 | 1009.4 |
| 20260509123606 | 59 | 52 | 0.0 | 1.0 | 0.00 | 0.00 | 0.00 | 60 | 1009.7 |
| 20260509123102 | 59 | 36 | 1.0 | 1.0 | 0.00 | 0.00 | 0.00 | 59 | 1009.4 |
| 20260509122558 | 59 | 45 | 0.0 | 0.0 | 0.00 | 0.00 | 0.00 | 60 | 1009.6 |
| 20260509122056 | 58 | 59 | 0.0 | 0.0 | 0.00 | 0.00 | 0.00 | 63 | 1009.4 |
| 20260509121552 | 58 | 49 | 0.0 | 0.0 | 0.00 | 0.00 | 0.00 | 64 | 1009.3 |
| 20260509121050 | 58 | 55 | 0.0 | 0.0 | 0.00 | 0.00 | 0.00 | 65 | 1009.5 |
| 20260509120548 | 58 | 67 | 0.0 | 0.0 | 0.00 | 0.00 | 0.00 | 60 | 1009.4 |
| 20260509120046 | 58 | 65 | 0.0 | 0.0 | 0.00 | 0.00 | 0.00 | 60 | 1009.2 |
| 20260509115542 | 57 | 65 | 0.0 | 0.0 | 0.00 | 0.00 | 0.00 | 61 | 1009.4 |
| 20260509115040 | 57 | 51 | 1.0 | 1.0 | 0.00 | 0.00 | 0.00 | 63 | 1009.3 |
| 20260509114538 | 57 | 44 | 0.0 | 0.0 | 0.00 | 0.00 | 0.00 | 62 | 1009.5 |
| 20260509114037 | 57 | 61 | 0.0 | 0.0 | 0.00 | 0.00 | 0.00 | 63 | 1009.4 |
| 20260509113535 | 57 | 61 | 1.0 | 1.0 | 0.00 | 0.00 | 0.00 | 62 | 1009.1 |
| 20260509113032 | 57 | 51 | 0.0 | 0.0 | 0.00 | 0.00 | 0.00 | 62 | 1009.4 |
| 20260509112528 | 57 | 33 | 1.0 | 1.0 | 0.00 | 0.00 | 0.00 | 61 | 1009.1 |
| 20260509112025 | 57 | 47 | 0.0 | 0.0 | 0.00 | 0.00 | 0.00 | 63 | 1009.3 |
| 20260509111523 | 57 | 47 | 0.0 | 0.0 | 0.00 | 0.00 | 0.00 | 63 | 1008.9 |
| 20260509111020 | 57 | 45 | 0.0 | 0.0 | 0.00 | 0.00 | 0.00 | 63 | 1009.0 |
| 20260509110516 | 57 | 61 | 0.0 | 0.0 | 0.00 | 0.00 | 0.00 | 63 | 1008.9 |
| 20260509110013 | 57 | 55 | 0.0 | 0.0 | 0.00 | 0.00 | 0.00 | 64 | 1009.0 |
| 20260509105512 | 56 | 50 | 0.0 | 0.0 | 0.00 | 0.00 | 0.00 | 62 | 1009.0 |
| 20260509105009 | 56 | 36 | 0.0 | 1.0 | 0.00 | 0.00 | 0.00 | 64 | 1008.9 |
| 20260509104506 | 56 | 54 | 0.0 | 0.0 | 0.00 | 0.00 | 0.00 | 63 | 1008.9 |
| 20260509104003 | 56 | 47 | 0.0 | 0.0 | 0.00 | 0.00 | 0.00 | 62 | 1009.0 |
| 20260509103500 | 56 | 48 | 0.0 | 0.0 | 0.00 | 0.00 | 0.00 | 63 | 1008.9 |
| 20260509102958 | 56 | 48 | 0.0 | 0.0 | 0.00 | 0.00 | 0.00 | 63 | 1008.8 |
| 20260509102455 | 56 | 61 | 0.0 | 0.0 | 0.00 | 0.00 | 0.00 | 63 | 1009.0 |
| 20260509101952 | 56 | 31 | 0.0 | 0.0 | 0.00 | 0.00 | 0.00 | 62 | 1009.0 |
| 20260509101448 | 56 | 46 | 0.0 | 0.0 | 0.00 | 0.00 | 0.00 | 62 | 1008.8 |
| 20260509100946 | 56 | 47 | 0.0 | 0.0 | 0.00 | 0.00 | 0.00 | 61 | 1008.7 |
| 20260509100443 | 56 | 44 | 0.0 | 0.0 | 0.00 | 0.00 | 0.00 | 61 | 1008.8 |
| 20260509095939 | 56 | 50 | 0.0 | 0.0 | 0.00 | 0.00 | 0.00 | 61 | 1008.9 |
| 20260509095436 | 57 | 50 | 0.0 | 0.0 | 0.00 | 0.00 | 0.00 | 61 | 1008.6 |
| 20260509094933 | 57 | 39 | 0.0 | 0.0 | 0.00 | 0.00 | 0.00 | 60 | 1008.9 |
| 20260509094430 | 57 | 44 | 1.0 | 1.0 | 0.00 | 0.00 | 0.00 | 61 | 1008.8 |
| 20260509093927 | 57 | 40 | 1.0 | 1.0 | 0.00 | 0.00 | 0.00 | 59 | 1008.8 |
| 20260509093425 | 57 | 29 | 1.0 | 1.0 | 0.00 | 0.00 | 0.00 | 59 | 1008.8 |
| 20260509092923 | 57 | 47 | 0.0 | 1.0 | 0.00 | 0.00 | 0.00 | 59 | 1008.6 |
| 20260509092420 | 57 | 30 | 0.0 | 0.0 | 0.00 | 0.00 | 0.00 | 60 | 1008.7 |
| 20260509091919 | 57 | 51 | 0.0 | 0.0 | 0.00 | 0.00 | 0.00 | 62 | 1008.6 |
| 20260509091415 | 57 | 54 | 0.0 | 0.0 | 0.00 | 0.00 | 0.00 | 61 | 1008.8 |
| 20260509090912 | 57 | 55 | 0.0 | 0.0 | 0.00 | 0.00 | 0.00 | 59 | 1008.7 |
| 20260509090409 | 57 | 65 | 0.0 | 0.0 | 0.00 | 0.00 | 0.00 | 62 | 1008.6 |
| 20260509085907 | 57 | 36 | 0.0 | 0.0 | 0.00 | 0.00 | 0.00 | 62 | 1008.9 |
| 20260509085404 | 58 | 44 | 0.0 | 0.0 | 0.00 | 0.00 | 0.00 | 60 | 1008.8 |
| 20260509084900 | 58 | 53 | 0.0 | 0.0 | 0.00 | 0.00 | 0.00 | 59 | 1009.0 |
| 20260509084357 | 58 | 61 | 0.0 | 0.0 | 0.00 | 0.00 | 0.00 | 58 | 1009.0 |
| 20260509083855 | 58 | 43 | 0.0 | 0.0 | 0.00 | 0.00 | 0.00 | 57 | 1008.9 |
| 20260509083352 | 58 | 43 | 1.0 | 1.0 | 0.00 | 0.00 | 0.00 | 56 | 1008.9 |
| 20260509082848 | 58 | 72 | 0.0 | 0.0 | 0.00 | 0.00 | 0.00 | 57 | 1008.9 |
| 20260509082345 | 57 | 44 | 1.0 | 1.0 | 0.00 | 0.00 | 0.00 | 58 | 1008.9 |
| 20260509081842 | 57 | 42 | 0.0 | 0.0 | 0.00 | 0.00 | 0.00 | 58 | 1009.1 |
| 20260509081339 | 57 | 54 | 0.0 | 0.0 | 0.00 | 0.00 | 0.00 | 59 | 1009.1 |
| 20260509080837 | 58 | 41 | 0.0 | 0.0 | 0.00 | 0.00 | 0.00 | 59 | 1009.1 |
| 20260509080335 | 57 | 49 | 0.0 | 0.0 | 0.00 | 0.00 | 0.00 | 59 | 1009.1 |
| 20260509075833 | 57 | 54 | 0.0 | 0.0 | 0.00 | 0.00 | 0.00 | 59 | 1009.0 |
| 20260509075330 | 56 | 52 | 0.0 | 0.0 | 0.00 | 0.00 | 0.00 | 61 | 1009.0 |
| 20260509074827 | 57 | 52 | 0.0 | 0.0 | 0.00 | 0.00 | 0.00 | 62 | 1009.0 |
| 20260509074325 | 57 | 52 | 0.0 | 0.0 | 0.00 | 0.00 | 0.00 | 61 | 1009.3 |
| 20260509073821 | 57 | 52 | 0.0 | 0.0 | 0.00 | 0.00 | 0.00 | 61 | 1009.0 |
| 20260509073317 | 57 | 47 | 0.0 | 0.0 | 0.00 | 0.00 | 0.00 | 60 | 1009.0 |
| 20260509072814 | 58 | 43 | 0.0 | 0.0 | 0.00 | 0.00 | 0.00 | 61 | 1009.3 |
| 20260509072310 | 58 | 50 | 0.0 | 1.0 | 0.00 | 0.00 | 0.00 | 59 | 1009.1 |
| 20260509071807 | 59 | 53 | 0.0 | 0.0 | 0.00 | 0.00 | 0.00 | 57 | 1009.4 |
| 20260509071304 | 59 | 59 | 0.0 | 1.0 | 0.00 | 0.00 | 0.00 | 54 | 1009.2 |
| 20260509070801 | 59 | 47 | 0.0 | 1.0 | 0.00 | 0.00 | 0.00 | 54 | 1009.3 |
| 20260509070258 | 59 | 73 | 0.0 | 1.0 | 0.00 | 0.00 | 0.00 | 55 | 1009.3 |
| 20260509065754 | 59 | 68 | 0.0 | 0.0 | 0.00 | 0.00 | 0.00 | 56 | 1009.3 |
| 20260509065250 | 58 | 76 | 2.0 | 2.0 | 0.00 | 0.00 | 0.00 | 56 | 1009.3 |
| 20260509064747 | 58 | 46 | 0.0 | 0.0 | 0.00 | 0.00 | 0.00 | 57 | 1009.4 |
| 20260509064244 | 58 | 65 | 0.0 | 0.0 | 0.00 | 0.00 | 0.00 | 57 | 1009.4 |
| 20260509063742 | 58 | 66 | 0.0 | 0.0 | 0.00 | 0.00 | 0.00 | 56 | 1009.3 |
| 20260509063238 | 58 | 49 | 0.0 | 0.0 | 0.00 | 0.00 | 0.00 | 56 | 1009.6 |
| 20260509062735 | 57 | 65 | 0.0 | 1.0 | 0.00 | 0.00 | 0.00 | 58 | 1009.6 |
| 20260509062232 | 57 | 72 | 0.0 | 0.0 | 0.00 | 0.00 | 0.00 | 62 | 1009.5 |
| 20260509061729 | 56 | 67 | 0.0 | 0.0 | 0.00 | 0.00 | 0.00 | 64 | 1009.7 |
| 20260509061227 | 56 | 68 | 0.0 | 0.0 | 0.00 | 0.00 | 0.00 | 64 | 1009.7 |
| 20260509060724 | 56 | 66 | 0.0 | 0.0 | 0.00 | 0.00 | 0.00 | 64 | 1009.8 |
| 20260509060220 | 56 | 67 | 0.0 | 0.0 | 0.00 | 0.00 | 0.00 | 65 | 1009.7 |
| 20260509055716 | 56 | 67 | 0.0 | 0.0 | 0.00 | 0.00 | 0.00 | 65 | 1009.6 |
| 20260509055212 | 56 | 67 | 0.0 | 0.0 | 0.00 | 0.00 | 0.00 | 64 | 1009.7 |
| 20260509054709 | 56 | 67 | 0.0 | 0.0 | 0.00 | 0.00 | 0.00 | 62 | 1009.8 |
| 20260509054206 | 56 | 59 | 0.0 | 0.0 | 0.00 | 0.00 | 0.00 | 64 | 1009.7 |
| 20260509053705 | 56 | 59 | 0.0 | 0.0 | 0.00 | 0.00 | 0.00 | 64 | 1009.8 |
| 20260509053201 | 56 | 59 | 0.0 | 0.0 | 0.00 | 0.00 | 0.00 | 64 | 1009.8 |
| 20260509052659 | 56 | 59 | 0.0 | 0.0 | 0.00 | 0.00 | 0.00 | 63 | 1009.8 |
| 20260509052156 | 55 | 71 | 0.0 | 0.0 | 0.00 | 0.00 | 0.00 | 64 | 1009.7 |
| 20260509051654 | 55 | 61 | 0.0 | 0.0 | 0.00 | 0.00 | 0.00 | 66 | 1009.9 |
| 20260509051151 | 55 | 62 | 0.0 | 0.0 | 0.00 | 0.00 | 0.00 | 67 | 1009.9 |
| 20260509050648 | 55 | 62 | 0.0 | 0.0 | 0.00 | 0.00 | 0.00 | 68 | 1009.9 |
| 20260509050144 | 56 | 63 | 0.0 | 0.0 | 0.00 | 0.00 | 0.00 | 68 | 1009.8 |
| 20260509045642 | 55 | 64 | 0.0 | 0.0 | 0.00 | 0.00 | 0.00 | 68 | 1009.9 |
| 20260509045139 | 55 | 59 | 0.0 | 0.0 | 0.00 | 0.00 | 0.00 | 67 | 1009.7 |
| 20260509044636 | 56 | 65 | 0.0 | 0.0 | 0.00 | 0.00 | 0.00 | 66 | 1009.7 |
| 20260509044133 | 56 | 66 | 0.0 | 0.0 | 0.00 | 0.00 | 0.00 | 65 | 1009.8 |
| 20260509043630 | 56 | 67 | 0.0 | 0.0 | 0.00 | 0.00 | 0.00 | 65 | 1009.5 |
| 20260509043125 | 56 | 62 | 0.0 | 0.0 | 0.00 | 0.00 | 0.00 | 66 | 1009.7 |
| 20260509042622 | 57 | 78 | 0.0 | 0.0 | 0.00 | 0.00 | 0.00 | 64 | 1009.6 |
| 20260509042118 | 57 | 62 | 0.0 | 0.0 | 0.00 | 0.00 | 0.00 | 64 | 1009.8 |
| 20260509041615 | 58 | 66 | 1.0 | 1.0 | 0.00 | 0.00 | 0.00 | 62 | 1009.7 |
| 20260509041113 | 58 | 9 | 1.0 | 1.0 | 0.00 | 0.00 | 0.00 | 60 | 1009.5 |
| 20260509040611 | 58 | 78 | 1.0 | 1.0 | 0.00 | 0.00 | 0.00 | 60 | 1009.9 |
| 20260509040108 | 58 | 74 | 0.0 | 1.0 | 0.00 | 0.00 | 0.00 | 59 | 1009.6 |
| 20260509035604 | 57 | 84 | 1.0 | 1.0 | 0.00 | 0.00 | 0.00 | 60 | 1009.7 |
| 20260509035100 | 56 | 76 | 1.0 | 1.0 | 0.00 | 0.00 | 0.00 | 63 | 1010.0 |
| 20260509034559 | 56 | 46 | 0.0 | 0.0 | 0.00 | 0.00 | 0.00 | 68 | 1009.7 |
| 20260509034055 | 56 | 56 | 0.0 | 0.0 | 0.00 | 0.00 | 0.00 | 67 | 1009.9 |
| 20260509033553 | 56 | 57 | 0.0 | 0.0 | 0.00 | 0.00 | 0.00 | 65 | 1009.7 |
| 20260509033049 | 56 | 85 | 1.0 | 1.0 | 0.00 | 0.00 | 0.00 | 65 | 1009.8 |
| 20260509032547 | 56 | 54 | 0.0 | 0.0 | 0.00 | 0.00 | 0.00 | 64 | 1009.9 |
| 20260509032044 | 57 | 57 | 0.0 | 0.0 | 0.00 | 0.00 | 0.00 | 63 | 1009.9 |
| 20260509031542 | 56 | 58 | 0.0 | 0.0 | 0.00 | 0.00 | 0.00 | 62 | 1009.9 |
| 20260509031038 | 56 | 58 | 0.0 | 0.0 | 0.00 | 0.00 | 0.00 | 63 | 1010.1 |
| 20260509030537 | 56 | 57 | 0.0 | 0.0 | 0.00 | 0.00 | 0.00 | 65 | 1009.8 |
| 20260509030033 | 56 | 59 | 0.0 | 0.0 | 0.00 | 0.00 | 0.00 | 64 | 1009.8 |
| 20260509025529 | 56 | 59 | 0.0 | 0.0 | 0.00 | 0.00 | 0.00 | 64 | 1009.8 |
| 20260509025025 | 57 | 59 | 0.0 | 0.0 | 0.00 | 0.00 | 0.00 | 63 | 1010.2 |
| 20260509024521 | 57 | 59 | 0.0 | 0.0 | 0.00 | 0.00 | 0.00 | 62 | 1010.0 |
| 20260509024017 | 58 | 44 | 0.0 | 0.0 | 0.00 | 0.00 | 0.00 | 61 | 1010.1 |
| 20260509023515 | 59 | 53 | 0.0 | 0.0 | 0.00 | 0.00 | 0.00 | 57 | 1010.1 |
| 20260509023012 | 59 | 52 | 0.0 | 0.0 | 0.00 | 0.00 | 0.00 | 55 | 1010.1 |
| 20260509022508 | 59 | 78 | 0.0 | 0.0 | 0.00 | 0.00 | 0.00 | 54 | 1009.9 |
| 20260509022006 | 59 | 78 | 0.0 | 0.0 | 0.00 | 0.00 | 0.00 | 55 | 1009.9 |
| 20260509021503 | 57 | 77 | 0.0 | 0.0 | 0.00 | 0.00 | 0.00 | 57 | 1010.1 |
| 20260509021000 | 56 | 52 | 0.0 | 0.0 | 0.00 | 0.00 | 0.00 | 62 | 1010.0 |
| 20260509020458 | 56 | 51 | 0.0 | 0.0 | 0.00 | 0.00 | 0.00 | 62 | 1010.1 |
| 20260509015954 | 57 | 51 | 0.0 | 0.0 | 0.00 | 0.00 | 0.00 | 62 | 1009.9 |
| 20260509015454 | 57 | 51 | 0.0 | 0.0 | 0.00 | 0.00 | 0.00 | 60 | 1009.8 |
| 20260509014950 | 58 | 51 | 0.0 | 0.0 | 0.00 | 0.00 | 0.00 | 59 | 1009.9 |
| 20260509014447 | 58 | 51 | 0.0 | 0.0 | 0.00 | 0.00 | 0.00 | 58 | 1010.0 |
| 20260509013943 | 59 | 51 | 0.0 | 0.0 | 0.00 | 0.00 | 0.00 | 56 | 1010.2 |
| 20260509013440 | 60 | 50 | 0.0 | 0.0 | 0.00 | 0.00 | 0.00 | 55 | 1009.9 |
| 20260509012936 | 61 | 50 | 0.0 | 0.0 | 0.00 | 0.00 | 0.00 | 52 | 1009.9 |
| 20260509012432 | 61 | 50 | 0.0 | 0.0 | 0.00 | 0.00 | 0.00 | 50 | 1009.8 |
| 20260509011930 | 62 | 50 | 0.0 | 1.0 | 0.00 | 0.00 | 0.00 | 50 | 1009.8 |
| 20260509011427 | 62 | 67 | 0.0 | 0.0 | 0.00 | 0.00 | 0.00 | 50 | 1009.6 |
| 20260509010925 | 62 | 71 | 0.0 | 0.0 | 0.00 | 0.00 | 0.00 | 50 | 1009.9 |
| 20260509010422 | 63 | 59 | 0.0 | 0.0 | 0.00 | 0.00 | 0.00 | 50 | 1009.6 |
| 20260509005919 | 63 | 49 | 0.0 | 0.0 | 0.00 | 0.00 | 0.00 | 48 | 1009.6 |
| 20260509005417 | 64 | 83 | 1.0 | 1.0 | 0.00 | 0.00 | 0.00 | 47 | 1009.6 |
| 20260509004917 | 64 | 72 | 0.0 | 0.0 | 0.00 | 0.00 | 0.00 | 46 | 1009.8 |
| 20260509004414 | 64 | 79 | 1.0 | 1.0 | 0.00 | 0.00 | 0.00 | 46 | 1009.6 |
| 20260509003912 | 64 | 79 | 0.0 | 1.0 | 0.00 | 0.00 | 0.00 | 46 | 1009.6 |
| 20260509003409 | 64 | 52 | 0.0 | 1.0 | 0.00 | 0.00 | 0.00 | 45 | 1009.5 |
| 20260509002905 | 65 | 66 | 0.0 | 0.0 | 0.00 | 0.00 | 0.00 | 45 | 1009.5 |
| 20260509002404 | 65 | 67 | 0.0 | 0.0 | 0.00 | 0.00 | 0.00 | 45 | 1009.5 |
| 20260509001901 | 66 | 73 | 0.0 | 0.0 | 0.00 | 0.00 | 0.00 | 44 | 1009.4 |
| 20260509001356 | 66 | 61 | 1.0 | 1.0 | 0.00 | 0.00 | 0.00 | 43 | 1009.3 |
| 20260509000854 | 66 | 51 | 1.0 | 1.0 | 0.00 | 0.00 | 0.00 | 42 | 1009.3 |
| 20260509000352 | 67 | 95 | 1.0 | 1.0 | 0.00 | 0.00 | 0.00 | 41 | 1009.0 |
| 20260508235848 | 67 | 82 | 1.0 | 1.0 | 0.00 | 0.00 | 0.00 | 40 | 1009.4 |
| 20260508235345 | 68 | 80 | 1.0 | 1.0 | 0.00 | 0.00 | 0.00 | 40 | 1009.3 |
| 20260508234842 | 68 | 91 | 0.0 | 0.0 | 0.00 | 0.00 | 0.00 | 39 | 1009.2 |
| 20260508234338 | 68 | 70 | 0.0 | 0.0 | 0.00 | 0.00 | 0.00 | 38 | 1009.4 |
| 20260508233837 | 69 | 66 | 1.0 | 1.0 | 0.00 | 0.00 | 0.00 | 37 | 1009.2 |
| 20260508233336 | 69 | 65 | 0.0 | 0.0 | 0.00 | 0.00 | 0.00 | 36 | 1009.1 |
| 20260508232832 | 69 | 78 | 2.0 | 2.0 | 0.00 | 0.00 | 0.00 | 37 | 1009.1 |
| 20260508232329 | 69 | 53 | 0.0 | 0.0 | 0.00 | 0.00 | 0.00 | 37 | 1009.0 |
| 20260508231827 | 70 | 26 | 1.0 | 2.0 | 0.00 | 0.00 | 0.00 | 37 | 1009.0 |
| 20260508231323 | 70 | 67 | 1.0 | 1.0 | 0.00 | 0.00 | 0.00 | 35 | 1009.2 |
| 20260508230820 | 70 | 69 | 0.0 | 0.0 | 0.00 | 0.00 | 0.00 | 35 | 1009.1 |
| 20260508230316 | 70 | 42 | 0.0 | 0.0 | 0.00 | 0.00 | 0.00 | 35 | 1008.9 |
| 20260508225814 | 70 | 45 | 1.0 | 1.0 | 0.00 | 0.00 | 0.00 | 34 | 1009.0 |
| 20260508225310 | 71 | 24 | 2.0 | 3.0 | 0.00 | 0.00 | 0.00 | 34 | 1009.1 |
| 20260508224809 | 71 | 45 | 0.0 | 1.0 | 0.00 | 0.00 | 0.00 | 33 | 1008.9 |
| 20260508224306 | 71 | 37 | 2.0 | 2.0 | 0.00 | 0.00 | 0.00 | 33 | 1009.1 |
| 20260508223803 | 71 | 342 | 1.0 | 3.0 | 0.00 | 0.00 | 0.00 | 35 | 1009.0 |
| 20260508223301 | 71 | 45 | 0.0 | 1.0 | 0.00 | 0.00 | 0.00 | 34 | 1009.0 |
| 20260508222758 | 70 | 74 | 1.0 | 1.0 | 0.00 | 0.00 | 0.00 | 35 | 1009.1 |
| 20260508222255 | 71 | 38 | 2.0 | 2.0 | 0.00 | 0.00 | 0.00 | 33 | 1009.0 |
| 20260508221751 | 71 | 45 | 2.0 | 3.0 | 0.00 | 0.00 | 0.00 | 33 | 1009.0 |
| 20260508221247 | 72 | 75 | 1.0 | 1.0 | 0.00 | 0.00 | 0.00 | 33 | 1008.9 |
| 20260508220743 | 71 | 48 | 1.0 | 1.0 | 0.00 | 0.00 | 0.00 | 33 | 1009.0 |
| 20260508220240 | 71 | 15 | 2.0 | 2.0 | 0.00 | 0.00 | 0.00 | 33 | 1008.7 |
| 20260508215736 | 72 | 46 | 0.0 | 1.0 | 0.00 | 0.00 | 0.00 | 32 | 1009.0 |
| 20260508215233 | 73 | 47 | 0.0 | 0.0 | 0.00 | 0.00 | 0.00 | 31 | 1008.9 |
| 20260508214731 | 73 | 5 | 1.0 | 2.0 | 0.00 | 0.00 | 0.00 | 32 | 1008.9 |
| 20260508214228 | 73 | 321 | 2.0 | 5.0 | 0.00 | 0.00 | 0.00 | 32 | 1008.9 |
| 20260508213724 | 73 | 34 | 0.0 | 1.0 | 0.00 | 0.00 | 0.00 | 31 | 1009.0 |
| 20260508213221 | 73 | 41 | 1.0 | 2.0 | 0.00 | 0.00 | 0.00 | 31 | 1009.1 |
| 20260508212717 | 73 | 39 | 2.0 | 2.0 | 0.00 | 0.00 | 0.00 | 31 | 1009.1 |
| 20260508212214 | 74 | 5 | 0.0 | 1.0 | 0.00 | 0.00 | 0.00 | 32 | 1009.2 |
| 20260508211709 | 73 | 22 | 3.0 | 3.0 | 0.00 | 0.00 | 0.00 | 31 | 1009.5 |
| 20260508211205 | 74 | 37 | 2.0 | 3.0 | 0.00 | 0.00 | 0.00 | 32 | 1009.3 |
| 20260508210703 | 73 | 30 | 1.0 | 1.0 | 0.00 | 0.00 | 0.00 | 31 | 1009.2 |
| 20260508210200 | 72 | 45 | 1.0 | 2.0 | 0.00 | 0.00 | 0.00 | 32 | 1009.4 |
| 20260508205657 | 74 | 345 | 1.0 | 2.0 | 0.00 | 0.00 | 0.00 | 31 | 1009.5 |
| 20260508205153 | 73 | 330 | 4.0 | 7.0 | 0.00 | 0.00 | 0.00 | 31 | 1009.5 |
| 20260508204649 | 74 | 35 | 3.0 | 3.0 | 0.00 | 0.00 | 0.00 | 29 | 1009.6 |
| 20260508204145 | 74 | 147 | 3.0 | 6.0 | 0.00 | 0.00 | 0.00 | 30 | 1009.3 |
| 20260508203642 | 74 | 356 | 4.0 | 6.0 | 0.00 | 0.00 | 0.00 | 30 | 1009.5 |
| 20260508203138 | 75 | 282 | 2.0 | 2.0 | 0.00 | 0.00 | 0.00 | 31 | 1009.5 |
| 20260508202634 | 74 | 344 | 4.0 | 7.0 | 0.00 | 0.00 | 0.00 | 29 | 1009.3 |
| 20260508202132 | 75 | 355 | 3.0 | 3.0 | 0.00 | 0.00 | 0.00 | 29 | 1009.5 |
| 20260508201628 | 75 | 19 | 4.0 | 5.0 | 0.00 | 0.00 | 0.00 | 29 | 1009.7 |